Krasna, Germany

5:40 PM CET on January 21, 2017 (GMT +0100)
Hof Plauen

Weather History for EDQM - March, 2014

Change the Weather History Date:

Saturday, March 8, 2014

  Actual Average Record
Temperature  
Mean Temperature 43 °F -  
Max Temperature 54 °F 43 °F 55 °F (1997)
Min Temperature 32 °F 31 °F 8 °F (2006)
Degree Days  
Heating Degree Days 22    
Moisture  
Dew Point 34 °F    
Average Humidity 75    
Maximum Humidity 93    
Minimum Humidity 43    
Precipitation  
Precipitation 0.00 in - - ()
Sea Level Pressure  
Sea Level Pressure 30.47 in    
Wind  
Wind Speed 4 mph ()    
Max Wind Speed 9 mph    
Max Gust Speed -    
Visibility 2.6 miles    
Events Fog    
Averages and records for this station are not official NWS values.
T = Trace of Precipitation, MM = Missing Value Source: Averaged Metar Reports

Daily Weather History Graph

Daily Weather History Graph

Search for Another Location

Airport or City:

Trip Planner

Search our weather history database for the weather conditions in past years. The results will help you decide how hot, cold, wet, or windy it might be!

Date:

Astronomy

Mar. 08, 2014 Rise Set
Actual Time 6:41 AM CET 6:05 PM CET
Civil Twilight 6:09 AM CET 6:38 PM CET
Nautical Twilight 5:31 AM CET 7:15 PM CET
Astronomical Twilight 4:53 AM CET 7:54 PM CET
Moon 10:31 AM CET (3/8) 1:26 AM CET (3/8)
Length of Visible Light 12h 28m
Length of Day
11h 23m
Waxing Crescent, 49% of the Moon is Illuminated
Mar 8
Waxing Crescent
Mar 8
First Quarter
Mar 16
Full
Mar 24
Last Quarter
Mar 30
New

Hourly Weather History & Observations

Time (CET) Temp. Windchill Dew Point Humidity Pressure Visibility Wind Dir Wind Speed Gust Speed Precip Events Conditions
12:00 AM 39 °F - 33 °F 73% 30.38 in 3 mi WNW 6.7 mph - -   Light Haze
12:20 AM 39.2 °F 34.2 °F 32.0 °F 75% 30.33 in - WNW 6.9 mph - N/A   Mostly Cloudy
12:50 AM 37.4 °F - 32.0 °F 81% 30.33 in - Variable 2.3 mph - N/A   Mostly Cloudy
1:00 AM 38 °F - 33 °F 77% 30.38 in 2 mi West 4.5 mph - -   Mist
1:20 AM 35.6 °F 32.8 °F 30.2 °F 81% 30.33 in - WSW 3.5 mph - N/A   Partly Cloudy
1:50 AM 35.6 °F 32.8 °F 30.2 °F 81% 30.33 in - WSW 3.5 mph - N/A   Mist
2:00 AM 34 °F - 31 °F 82% 30.40 in 2 mi West 2.2 mph - -   Mist
2:20 AM 35.6 °F - 30.2 °F 81% 30.36 in - Variable 1.2 mph - N/A   Mist
2:50 AM 33.8 °F - 32.0 °F 93% 30.36 in 1.5 mi Calm Calm - N/A   Mist
3:00 AM 34 °F - 31 °F 86% 30.43 in 2 mi NNW 2.2 mph - -   Mist
3:20 AM 33.8 °F - 30.2 °F 87% 30.36 in 1.5 mi Calm Calm - N/A   Mist
3:50 AM 33.8 °F 29.6 °F 30.2 °F 87% 30.36 in 1.8 mi NNW 4.6 mph - N/A   Mist
4:20 AM 35.6 °F 29.2 °F 32.0 °F 87% 30.39 in - NNW 8.1 mph - N/A   Mist
4:50 AM 35.6 °F 28.6 °F 32.0 °F 87% 30.39 in - NNW 9.2 mph - N/A   Mist
5:00 AM 35 °F - 32 °F 84% 30.46 in 2 mi NNW 8.9 mph - -   Mist
5:20 AM 35.6 °F 30.7 °F 30.2 °F 81% 30.39 in - North 5.8 mph - N/A   Mist
5:50 AM 35.6 °F - 30.2 °F 81% 30.42 in - Variable 2.3 mph - N/A   Mist
6:00 AM 35 °F - 32 °F 83% 30.48 in 2 mi North 4.5 mph - -   Mist
6:20 AM 33.8 °F 28.6 °F 30.2 °F 87% 30.42 in - NNE 5.8 mph - N/A   Mist
6:50 AM 33.8 °F 29.6 °F 30.2 °F 87% 30.45 in 1.8 mi NNW 4.6 mph - N/A   Mist
7:00 AM 34 °F - 31 °F 86% 30.52 in 2 mi NNW 4.5 mph - -   Mist
7:20 AM 33.8 °F 28.6 °F 30.2 °F 87% 30.45 in 1.7 mi NNW 5.8 mph - N/A   Mist
7:50 AM 35.6 °F 32.8 °F 32.0 °F 87% 30.45 in 2.5 mi NNE 3.5 mph - N/A   Mist
8:00 AM 36 °F - 33 °F 83% 30.53 in 2 mi SE 2.2 mph - -   Mist
8:20 AM 37.4 °F 32.8 °F 32.0 °F 81% 30.48 in 1.7 mi NNE 5.8 mph - N/A   Partly Cloudy
8:32 AM 37.4 °F 34.9 °F 33.8 °F 87% 30.48 in 1.6 mi NE 3.5 mph - N/A   Mostly Cloudy
8:50 AM 37.4 °F 34.9 °F 33.8 °F 87% 30.51 in 1.6 mi East 3.5 mph - N/A   Overcast
9:00 AM 37 °F - 34 °F 84% 30.55 in 2 mi SE 2.2 mph - -   Mist
9:20 AM 39.2 °F - 33.8 °F 81% 30.51 in 1.7 mi Calm Calm - N/A   Overcast
9:50 AM 39.2 °F - 33.8 °F 81% 30.51 in 1.6 mi Calm Calm - N/A   Overcast
10:20 AM 39.2 °F - 35.6 °F 87% 30.51 in 1.6 mi Variable 2.3 mph - N/A   Overcast
10:50 AM 41.0 °F 38.0 °F 35.6 °F 81% 30.51 in 1.7 mi NNE 4.6 mph - N/A   Mostly Cloudy
11:00 AM 42 °F - 37 °F 78% 30.55 in 2 mi ENE 2.2 mph - -   Mist
11:20 AM 44.6 °F 42.2 °F 35.6 °F 71% 30.51 in 3.1 mi NNE 4.6 mph - N/A   Scattered Clouds
11:50 AM 46.4 °F 44.3 °F 35.6 °F 66% 30.51 in 3.1 mi NNE 4.6 mph - N/A   Partly Cloudy
12:00 PM 47 °F - 38 °F 61% 30.52 in 4 mi East 4.5 mph - -   Haze
12:20 PM 46.4 °F 42.9 °F 35.6 °F 66% 30.51 in 3.1 mi NE 6.9 mph - N/A   Haze
12:50 PM 50.0 °F - 37.4 °F 62% 30.51 in 4.3 mi NNE 5.8 mph - N/A   Partly Cloudy
1:00 PM 49 °F - 38 °F 54% 30.51 in 5 mi North 4.5 mph - -   Partly Cloudy
1:20 PM 50.0 °F - 35.6 °F 58% 30.51 in 3.7 mi Variable 2.3 mph - N/A   Unknown
1:50 PM 51.8 °F - 35.6 °F 54% 30.48 in 4.3 mi WSW 4.6 mph - N/A   Unknown
2:00 PM 52 °F - 37 °F 46% 30.49 in 5 mi South 2.2 mph - -  
2:20 PM 51.8 °F - 32.0 °F 47% 30.48 in 4.3 mi South 3.5 mph - N/A   Unknown
2:50 PM 53.6 °F - 32.0 °F 44% 30.48 in 5.0 mi Variable 1.2 mph - N/A   Unknown
3:00 PM 54 °F - 38 °F 43% 30.47 in 5 mi SSW 2.2 mph - -  
3:20 PM 53.6 °F - 33.8 °F 47% 30.48 in - Variable 1.2 mph - N/A   Clear
3:50 PM 51.8 °F - 33.8 °F 50% 30.48 in - Variable 2.3 mph - N/A   Clear
4:20 PM 53.6 °F - 33.8 °F 47% 30.48 in 5.0 mi Variable 1.2 mph - N/A   Unknown
4:50 PM 51.8 °F - 35.6 °F 54% 30.48 in 5.0 mi Calm Calm - N/A   Unknown
5:00 PM 52 °F - 37 °F 46% 30.47 in 6 mi North 4.5 mph - -  
5:20 PM 51.8 °F - 35.6 °F 54% 30.48 in 5.0 mi North 4.6 mph - N/A   Unknown
5:50 PM 50.0 °F - 35.6 °F 58% 30.48 in 5.0 mi NE 5.8 mph - N/A   Unknown
6:00 PM 49 °F - 38 °F 56% 30.48 in 5 mi ENE 6.7 mph - -  
6:20 PM 46.4 °F 42.9 °F 37.4 °F 71% 30.48 in 3.7 mi NE 6.9 mph - N/A   Unknown
6:50 PM 44.6 °F 40.2 °F 37.4 °F 76% 30.51 in 3.1 mi NE 8.1 mph - N/A   Mist
7:00 PM 45 °F - 38 °F 70% 30.52 in 3 mi ENE 6.7 mph - -   Haze
7:20 PM 42.8 °F 39.3 °F 35.6 °F 76% 30.51 in - NNE 5.8 mph - N/A   Mist
7:50 PM 41.0 °F 39.0 °F 35.6 °F 81% 30.51 in 2.2 mi North 3.5 mph - N/A   Mist
8:00 PM 41 °F - 37 °F 79% 30.54 in 2 mi NE 2.2 mph - -   Mist
8:20 PM 41.0 °F 39.0 °F 35.6 °F 81% 30.51 in 1.7 mi NNE 3.5 mph - N/A   Mist
8:50 PM 39.2 °F - 35.6 °F 87% 30.51 in 1.2 mi Calm Calm - N/A   Mist
9:00 PM 39 °F - 36 °F 85% 30.56 in 2 mi ESE 2.2 mph - -   Mist
9:20 PM 37.4 °F - 33.8 °F 87% 30.51 in 0.9 mi Calm Calm - N/A   Mist
9:50 PM 37.4 °F - 33.8 °F 87% 30.51 in 0.9 mi Calm Calm - N/A   Mist
10:20 PM 37.4 °F - 35.6 °F 93% 30.51 in 0.7 mi Calm Calm - N/A   Mist
10:50 PM 37.4 °F - 33.8 °F 87% 30.51 in 0.2 mi Calm Calm - N/A Fog Fog
11:00 PM 37 °F - 35 °F 92% 30.57 in 1 mi South 4.5 mph - -   Mist
11:20 PM 37.4 °F - 35.6 °F 93% 30.51 in 0.1 mi Variable 2.3 mph - N/A   Unknown
11:50 PM 35.6 °F - 33.8 °F 93% 30.51 in 1.2 mi Calm Calm - N/A   Unknown